Regional Weather Roundup
Issued by NWS

Home | Current Version | Previous Version | Graphics & Text | Print | Product List | Glossary Off
Versions: 1 2 3 4 5 6 7 8 9 10 11 12 13 14 15 16 17 18 19 20 21 22 23 24 25 26 27 28 29 30 31 32 33 34 35 36 37 38 39 40 41 42 43 44 45 46 47 48 49 50

000
ASUS43 KMPX 252210
RWRMN
WEATHER ROUNDUP FOR MINNESOTA
NATIONAL WEATHER SERVICE TWIN CITIES/CHANHASSEN MN
500 PM CDT SAT APR 25 2015


NOTE: "FAIR" INDICATES FEW OR NO CLOUDS BELOW 12,000 FEET WITH NO
SIGNIFICANT WEATHER AND/OR OBSTRUCTIONS TO VISIBILITY. N/A MEANS
CURRENT SKY AND/OR WEATHER CONDITIONS ARE NOT AVAILABLE.

MNZ060>063-068>070-252300-
   Twin Cities Metro

CITY           SKY/WX    TMP DP  RH WIND       PRES   REMARKS
TWIN CITIES    MOSUNNY   61  25  25 E14G20    29.84S
ST PAUL        SUNNY     61  22  22 E8G20     29.85S
CRYSTAL        SUNNY     62  22  21 NE14G22   29.84S
LAKEVILLE      MOSUNNY   57  32  38 NE15      29.84S
EDEN PRAIRIE   SUNNY     60  29  30 E13       29.83R
SOUTH ST PAUL  SUNNY     61  24  23 NE6       29.85R
LAKE ELMO      FAIR      61  21  21 E12G21    29.86R
$$
MNZ001>005-007-008-013>017-022>024-027-028-252300-
   Northwest Minnesota

CITY           SKY/WX    TMP DP  RH WIND       PRES   REMARKS
BEMIDJI        SUNNY     58  30  34 E10       29.92R
HALLOCK        SUNNY     66  30  26 SE15G21   29.89R
ROSEAU         SUNNY     61  30  31 E17       29.92S
WARROAD        SUNNY     55  34  44 NE16      29.94S
THIEF RVR FALL MOSUNNY   61  34  36 E12G17    29.90R
CROOKSTON      CLOUDY    63  36  36 SE12      29.89R
FOSSTON        SUNNY     63  30  29 E7        29.90S
DETROIT LAKES  SUNNY     59  32  36 SE15      29.89S
MOORHEAD       MOSUNNY   63  36  36 SE9G16    29.89R
PARK RAPIDS    SUNNY     59  26  28 SE10      29.89S
MAHNOMEN       FAIR      58  32  37 SE8       29.88S
$$
MNZ006-009>011-018-025>026-252300-
   North Central Minnesota

CITY           SKY/WX    TMP DP  RH WIND       PRES   REMARKS
BAUDETTE       SUNNY     59  28  30 E10       29.94S
FLAG ISLAND    SUNNY     55  28  35 SE6       29.95S
INTL FALLS     SUNNY     55  24  30 SE7       29.95F
WASKISH        MOSUNNY   61  34  36 E8        29.92R
BIG FORK       SUNNY     61  27  27 NE7G17    29.93R
LONGVILLE      SUNNY     57  28  33 E5        29.92R
GRAND RAPIDS   SUNNY     55  28  35 NE7       29.93F
CRANE LAKE     MOSUNNY   55  19  24 NE5       29.97S
ORR            SUNNY     57  21  24 E5        29.92S
COOK           SUNNY     55  25  30 NE8       29.95R
WALKER         FAIR      56  29  36 E7        29.92R
$$
MNZ012-019>021-037-252300-
   Northeast Minnesota

CITY           SKY/WX    TMP DP  RH WIND       PRES   REMARKS
DULUTH         MOSUNNY   47  15  27 E15       29.97R
ELY            SUNNY     54  14  20 E3        29.95S
HIBBING        SUNNY     59  22  24 SE10G17   29.92S
EVELETH        SUNNY     55  18  22 SE12G17   29.95R
DULUTH HARBOR  SUNNY     39  30  70 NE20      30.01S
TWO HARBORS    SUNNY     46  21  36 E15       29.98S
SILVER BAY     SUNNY     45  16  31 NE13      30.00S
GRAND MARAIS     N/A     42  26  53 NE13      30.02F
G MARAIS ARPRT SUNNY     43  16  33 SE6       29.99S
$$
MNZ029>031-032-039>041-046>048-054>057-064-252300-
   West Central Minnesota

CITY           SKY/WX    TMP DP  RH WIND       PRES   REMARKS
FERGUS FALLS   MOSUNNY   57  36  44 SE3       29.89R
WHEATON        PTSUNNY   54  43  66 E12       29.89R
MORRIS         MOSUNNY   57  43  58 E10G16    29.86R
ALEXANDRIA     MOSUNNY   56  39  53 E14       29.89R
ELBOW LAKE     FAIR      56  41  56 E12G18    29.88R
WADENA         SUNNY     57  34  41 E9G18     29.89R
GLENWOOD       PTSUNNY   55  43  62 E14       29.88R
APPLETON       SUNNY     61  41  48 E10       29.85S
BENSON         MOSUNNY   61  37  41 SE10      29.86R
ORTONVILLE     CLOUDY    55  43  62 E9        29.86R
MADISON        MOSUNNY   59  41  51 E14       29.84S
WILLMAR        FAIR      57  43  58 E12G17    29.87R
$$
MNZ033>034-036-042>043-049>051-058-059-252300-
   Central Minnesota

CITY           SKY/WX    TMP DP  RH WIND       PRES   REMARKS
ST CLOUD       SUNNY     59  30  33 E13G21    29.87R
SAUK CENTRE    FAIR      56  38  50 E9G16     29.88R
PAYNESVILLE    SUNNY     55  36  48 NE14      29.87R
AITKIN         CLOUDY    57  23  26 E14G20    29.91R
PINE RIVER     SUNNY     55  32  41 SE15G21   29.95R
BRAINERD       MOSUNNY   56  26  31 NE14      29.91R
STAPLES        SUNNY     57  28  33 E8        29.90R
LONG PRAIRIE   FAIR      55  37  50 N5        29.89R
LITTLE FALLS   SUNNY     55  32  41 NE7G16    29.89S
LITCHFIELD     SUNNY     61  36  39 NE14      29.86R
BUFFALO        SUNNY     60  26  26 E9        29.87R
MAPLE LAKE     SUNNY     61  31  32 NE9G16    29.87R
$$
MNZ037-044-045-052-053-252300-
   East Central Minnesota

CITY           SKY/WX    TMP DP  RH WIND       PRES   REMARKS
PRINCETON      CLOUDY    61  28  29 NE13      29.88R
MORA           PTSUNNY   54  30  40 N7        29.91R
CAMBRIDGE      CLOUDY    61  39  44 N7        29.85R
RUSH CITY      CLOUDY    60  26  26 NE8       29.87S
MOOSE LAKE     MOSUNNY   50  27  40 NE8G16    29.93S
HINCKLEY       CLOUDY    54  32  43 NE12G17   29.91R
CLOQUET        SUNNY     46  14  27 E12G21    29.96S
MCGREGOR       MOSUNNY   54  28  37 E15       29.93S
$$
MNZ071>073-080-081-089-090-097-098-252300-
   Southwest Minnesota

CITY           SKY/WX    TMP DP  RH WIND       PRES   REMARKS
MONTEVIDEO     PTSUNNY   61  43  51 SE16      29.85S
GRANITE FALLS  PTSUNNY   61  38  42 E12G17    29.85R
CANBY          CLOUDY    60  40  47 E9        29.84R
MARSHALL       MOSUNNY   59  37  44 SE14G21   29.82R
REDWOOD FALLS  MOSUNNY   58  39  49 E13       29.83S
OLIVIA         MOSUNNY   57  34  41 E10G17    29.84R
PIPESTONE      PTSUNNY   57  39  51 E13G18    29.80R
WINDOM         CLOUDY    55  39  54 NE15      29.83R
WORTHINGTON    CLOUDY    55  39  54 E17       29.81S
JACKSON        CLOUDY    54  37  54 E14G21    29.83R
TRACY          CLOUDY    58  40  52 E13G20    29.84R
SLAYTON        CLOUDY    56  38  51 NE16      29.83R
$$
MNZ065>067-074>077-082>085-091>093-252300-
   South Central Minnesota

CITY           SKY/WX    TMP DP  RH WIND       PRES   REMARKS
MANKATO        CLOUDY    55  37  50 E12       29.85R
NEW ULM        MOSUNNY   55  37  50 E9G18     29.84S
ST JAMES       CLOUDY    55  37  50 E15G21    29.85R
FAIRMONT       CLOUDY    54  36  50 NE17G23   29.83R
GLENCOE        MOSUNNY   60  39  45 NE12      29.84R
FARIBAULT      CLOUDY    55  37  50 E9        29.84S
OWATONNA       PTSUNNY   55  37  50 E14       29.84R
WASECA         PTSUNNY   55  39  54 E16       29.85R
ALBERT LEA     CLOUDY    52  39  62 E15       29.82R
$$
MNZ078>079-086>088-094>096-252300-
   Southeast Minnesota

CITY           SKY/WX    TMP DP  RH WIND       PRES   REMARKS
ROCHESTER      PTSUNNY   54  38  54 NE16      29.84R
RED WING       MOSUNNY   61  19  20 E12G18    29.83S
STANTON        PTSUNNY   59  32  36 E10       29.83S
DODGE CENTER   CLOUDY    54  39  58 E13       29.84R
WINONA         PTSUNNY   57  30  35 E6        29.83S
AUSTIN         CLOUDY    52  39  62 E15       29.83R
PRESTON        CLOUDY    51  35  53 E12G17    29.84R
$$
ABBREVIATIONS USED IN REMARKS
   TC - TEMPERATURES IN CELSIUS
  WCI - WIND CHILL INDEX
   HX - HEAT INDEX
  VSB - VISIBILITY
$$



USA.gov is the U.S. government's official web portal to all federal, state and local government web resources and services.